Regional Weather Roundup
Issued by NWS

Home | Current Version | Previous Version | Text Only | Print | Product List | Glossary Off
Versions: 1 2 3 4 5 6 7 8 9 10 11 12 13 14 15 16 17 18 19 20 21 22 23 24 25 26 27 28 29 30 31 32 33 34 35 36 37 38 39 40 41 42 43 44 45 46 47 48 49 50

000
ASUS44 KMEG 080710
RWRTN
TENNESSEE HOURLY STATE WEATHER ROUNDUP
NATIONAL WEATHER SERVICE MEMPHIS TN
100 AM CST THU DEC 08 2016

TNZ002-004-019-021-049-052-054-088>092-080800-
WEST TENNESSEE

CITY           SKY/WX    TMP DP  RH WIND       PRES   REMARKS
MEMPHIS INTL   CLOUDY    40  23  50 N12       30.31R WCI  33
NWS MEMPHIS      N/A     39 N/A N/A MISG        N/A
JACKSON        CLOUDY    39  26  59 N13       30.30R WCI  31
DYERSBURG      CLOUDY    37  23  56 N6        30.32S WCI  33
UNION CITY     CLOUDY    36  25  64 CALM      30.30R
PARIS          CLOUDY    34  21  60 N6        30.29S WCI  29
HUNTINGDON     CLOUDY    37  23  56 N6        30.29R WCI  33
LEXINGTON      CLOUDY    39  25  56 N6        30.26S WCI  35
$$

TNZ008-025-027-028-033-062-065-066-080800-
NORTH MIDDLE TENNESSEE

CITY           SKY/WX    TMP DP  RH WIND       PRES   REMARKS
NASHVILLE      CLOUDY    39  21  48 N7        30.26R WCI  34
PORTLAND       CLOUDY    36  25  64 N7        30.24R WCI  30
CLARKSVILLE    CLOUDY    36  21  54 NW13      30.28R WCI  27
SMYRNA         CLOUDY    39  22  50 N10       30.26R WCI  32
GALLATIN       CLOUDY    37  21  52 NW8       30.28R WCI  31
CROSSVILLE     CLOUDY    35  25  66 NW6       30.16R WCI  30
$$

TNZ061-075-076-078-094-096-097-080800-
SOUTH MIDDLE TENNESSEE

CITY           SKY/WX    TMP DP  RH WIND       PRES   REMARKS
FAYETTEVILLE   MOCLDY    39  32  75 N6        30.21R WCI  35
TULLAHOMA      PTCLDY    36  28  75 N8        30.20R WCI  29
WINCHESTER     CLOUDY    37  30  75 N7        30.20R WCI  32
MCMINNVILLE    CLOUDY    37  27  65 N9          N/A  WCI  31
COLUMBIA       CLOUDY    37  30  75 N5        30.22S WCI  34
SHELBYVILLE    CLOUDY    39  30  70 N8        30.23R WCI  34
$$

TNZ017-018-042-046-047-080800-
NORTHEAST TENNESSEE

CITY           SKY/WX    TMP DP  RH WIND       PRES   REMARKS
TRI CITIES     CLOUDY    39  31  72 W3        30.09R
ELIZABETHTON   DRIZZLE   41  34  75 W8G15     30.08R
$$

TNZ012-013-036-069-073-074-080800-
CENTRAL EAST TENNESSEE

CITY           SKY/WX    TMP DP  RH WIND       PRES   REMARKS
KNOXVILLE      CLOUDY    43  31  62 N5        30.13R
OAK RIDGE      CLOUDY    43  33  68 CALM      30.15R
DOWNTOWN KNOXV CLOUDY    43  28  56 CALM      30.15R
GATLINBURG     CLOUDY    41  30  65 W6        30.12R
MORRISTOWN     CLOUDY    43  30  61 NW7       30.10R
JACKSBORO      MOCLDY    39  27  60 CALM      30.18R
$$

TNZ083-085-099-080800-
SOUTHEAST TENNESSEE

CITY           SKY/WX    TMP DP  RH WIND       PRES   REMARKS
CHATTANOOGA    CLOUDY    44  35  70 NW6       30.15S
$$

SKY/WX REPORTED AS FAIR MEANS FEW OR NO CLOUDS BELOW
12 THOUSAND FEET.





USA.gov is the U.S. government's official web portal to all federal, state and local government web resources and services.